| time (UTC) | temp C | wind direction | speed KPH | gust KPH | rain 1hr cm | rain 24hr cm | rain mn cm | humidity % | barometer mb |
| 20260508220004 | 17 | 246 | 0.0 | 8.0 | 0.00 | 0.00 | 0.00 | 53 | 1009.1 |
| 20260508215504 | 17 | 275 | 3.2 | 8.0 | 0.00 | 0.00 | 0.00 | 52 | 1009.1 |
| 20260508215004 | 17 | 325 | 3.2 | 8.0 | 0.00 | 0.00 | 0.00 | 52 | 1009.1 |
| 20260508214504 | 17 | 247 | 1.6 | 8.0 | 0.00 | 0.00 | 0.00 | 52 | 1009.0 |
| 20260508214005 | 17 | 297 | 1.6 | 8.0 | 0.00 | 0.00 | 0.00 | 52 | 1009.0 |
| 20260508213504 | 17 | 273 | 4.8 | 11.3 | 0.00 | 0.00 | 0.00 | 50 | 1009.0 |
| 20260508213004 | 17 | 227 | 3.2 | 8.0 | 0.00 | 0.00 | 0.00 | 50 | 1009.1 |
| 20260508212004 | 17 | 269 | 1.6 | 4.8 | 0.00 | 0.00 | 0.00 | 50 | 1009.1 |
| 20260508211504 | 17 | 269 | 3.2 | 9.7 | 0.00 | 0.00 | 0.00 | 49 | 1009.2 |
| 20260508211004 | 17 | 243 | 1.6 | 9.7 | 0.00 | 0.00 | 0.00 | 50 | 1009.2 |
| 20260508210504 | 17 | 245 | 4.8 | 12.9 | 0.00 | 0.00 | 0.00 | 50 | 1009.2 |
| 20260508210004 | 17 | 291 | 4.8 | 11.3 | 0.00 | 0.00 | 0.00 | 49 | 1009.3 |
| 20260508205004 | 18 | 256 | 4.8 | 11.3 | 0.00 | 0.00 | 0.00 | 49 | 1009.4 |
| 20260508204504 | 18 | 253 | 3.2 | 11.3 | 0.00 | 0.00 | 0.00 | 48 | 1009.4 |
| 20260508204004 | 18 | 261 | 4.8 | 12.9 | 0.00 | 0.00 | 0.00 | 48 | 1009.4 |
| 20260508203504 | 18 | 250 | 1.6 | 9.7 | 0.00 | 0.00 | 0.00 | 48 | 1009.5 |
| 20260508203004 | 18 | 305 | 4.8 | 16.1 | 0.00 | 0.00 | 0.00 | 47 | 1009.5 |
| 20260508202504 | 18 | 278 | 3.2 | 14.5 | 0.00 | 0.00 | 0.00 | 47 | 1009.5 |
| 20260508202004 | 18 | 250 | 6.4 | 19.3 | 0.00 | 0.00 | 0.00 | 47 | 1009.7 |
| 20260508201504 | 18 | 259 | 8.0 | 19.3 | 0.00 | 0.00 | 0.00 | 46 | 1009.7 |
| 20260508201004 | 18 | 237 | 9.7 | 16.1 | 0.00 | 0.00 | 0.00 | 46 | 1009.8 |
| 20260508200504 | 18 | 227 | 9.7 | 20.9 | 0.00 | 0.00 | 0.00 | 45 | 1009.8 |
| 20260508200004 | 18 | 264 | 8.0 | 12.9 | 0.00 | 0.00 | 0.00 | 45 | 1009.8 |
| 20260508195504 | 18 | 222 | 11.3 | 24.1 | 0.00 | 0.00 | 0.00 | 43 | 1009.8 |
| 20260508195004 | 18 | 226 | 9.7 | 27.4 | 0.00 | 0.00 | 0.00 | 45 | 1009.9 |
| 20260508194504 | 18 | 220 | 4.8 | 14.5 | 0.00 | 0.00 | 0.00 | 48 | 1009.8 |
| 20260508194004 | 18 | 316 | 4.8 | 11.3 | 0.00 | 0.00 | 0.00 | 49 | 1010.0 |
| 20260508193504 | 18 | 253 | 4.8 | 12.9 | 0.00 | 0.00 | 0.00 | 48 | 1010.0 |
| 20260508193004 | 18 | 221 | 6.4 | 14.5 | 0.00 | 0.00 | 0.00 | 48 | 1010.1 |
| 20260508192504 | 18 | 259 | 6.4 | 12.9 | 0.00 | 0.00 | 0.00 | 47 | 1010.3 |
| 20260508192005 | 18 | 279 | 3.2 | 9.7 | 0.00 | 0.00 | 0.00 | 49 | 1010.4 |
| 20260508191504 | 18 | 239 | 3.2 | 12.9 | 0.00 | 0.00 | 0.00 | 49 | 1010.5 |
| 20260508191004 | 18 | 258 | 9.7 | 22.5 | 0.00 | 0.00 | 0.00 | 47 | 1010.5 |
| 20260508190504 | 18 | 272 | 8.0 | 20.9 | 0.00 | 0.00 | 0.00 | 47 | 1010.5 |
| 20260508190004 | 18 | 275 | 11.3 | 27.4 | 0.00 | 0.00 | 0.00 | 47 | 1010.6 |
| 20260508185504 | 18 | 224 | 11.3 | 22.5 | 0.00 | 0.00 | 0.00 | 48 | 1010.7 |
| 20260508184004 | 18 | 246 | 9.7 | 25.7 | 0.00 | 0.00 | 0.00 | 48 | 1010.7 |
| 20260508183504 | 18 | 276 | 9.7 | 24.1 | 0.00 | 0.00 | 0.00 | 48 | 1010.8 |
| 20260508183004 | 18 | 245 | 9.7 | 20.9 | 0.00 | 0.00 | 0.00 | 48 | 1010.8 |
| 20260508182004 | 18 | 232 | 11.3 | 20.9 | 0.00 | 0.00 | 0.00 | 46 | 1010.9 |
| 20260508181504 | 19 | 239 | 8.0 | 22.5 | 0.00 | 0.00 | 0.00 | 46 | 1010.9 |
| 20260508180504 | 20 | 245 | 9.7 | 25.7 | 0.00 | 0.00 | 0.00 | 46 | 1011.0 |
| 20260508180004 | 20 | 217 | 6.4 | 14.5 | 0.00 | 0.00 | 0.00 | 47 | 1011.2 |
| 20260508175503 | 19 | 199 | 9.7 | 25.7 | 0.00 | 0.00 | 0.00 | 48 | 1011.1 |
| 20260508175004 | 19 | 283 | 9.7 | 22.5 | 0.00 | 0.00 | 0.00 | 47 | 1011.2 |
| 20260508174503 | 19 | 259 | 6.4 | 14.5 | 0.00 | 0.00 | 0.00 | 47 | 1011.3 |
| 20260508174004 | 20 | 223 | 8.0 | 14.5 | 0.00 | 0.00 | 0.00 | 47 | 1011.2 |
| 20260508173504 | 20 | 291 | 4.8 | 16.1 | 0.00 | 0.00 | 0.00 | 49 | 1011.6 |
| 20260508173004 | 19 | 233 | 4.8 | 20.9 | 0.00 | 0.00 | 0.00 | 50 | 1011.6 |
| 20260508172004 | 18 | 215 | 8.0 | 16.1 | 0.00 | 0.00 | 0.00 | 50 | 1011.7 |
| 20260508171004 | 18 | 259 | 8.0 | 12.9 | 0.00 | 0.00 | 0.00 | 50 | 1012.2 |
| 20260508170504 | 18 | 247 | 9.7 | 16.1 | 0.00 | 0.00 | 0.00 | 50 | 1012.3 |
| 20260508165504 | 17 | 239 | 8.0 | 29.0 | 0.00 | 0.00 | 0.00 | 52 | 1012.5 |
| 20260508165004 | 17 | 236 | 4.8 | 11.3 | 0.00 | 0.00 | 0.00 | 52 | 1012.6 |
| 20260508164504 | 17 | 283 | 4.8 | 14.5 | 0.00 | 0.00 | 0.00 | 53 | 1012.7 |
| 20260508164004 | 17 | 212 | 3.2 | 12.9 | 0.00 | 0.00 | 0.00 | 53 | 1012.7 |
| 20260508163504 | 17 | 243 | 6.4 | 11.3 | 0.00 | 0.00 | 0.00 | 52 | 1012.7 |
| 20260508163003 | 17 | 253 | 6.4 | 12.9 | 0.00 | 0.00 | 0.00 | 51 | 1012.7 |
| 20260508162504 | 17 | 271 | 4.8 | 12.9 | 0.00 | 0.00 | 0.00 | 50 | 1012.8 |
| 20260508161005 | 18 | 247 | 4.8 | 12.9 | 0.00 | 0.00 | 0.00 | 51 | 1012.9 |
| 20260508160506 | 17 | 256 | 8.0 | 14.5 | 0.00 | 0.00 | 0.00 | 51 | 1012.9 |
| 20260508160005 | 17 | 205 | 6.4 | 12.9 | 0.00 | 0.00 | 0.00 | 53 | 1012.9 |
| 20260508155505 | 16 | 254 | 4.8 | 12.9 | 0.00 | 0.00 | 0.00 | 54 | 1013.0 |
| 20260508155005 | 16 | 299 | 4.8 | 11.3 | 0.00 | 0.00 | 0.00 | 53 | 1013.0 |
| 20260508154005 | 16 | 287 | 4.8 | 12.9 | 0.00 | 0.00 | 0.00 | 52 | 1013.1 |
| 20260508153505 | 16 | 270 | 6.4 | 16.1 | 0.00 | 0.00 | 0.00 | 54 | 1013.1 |
| 20260508153005 | 16 | 317 | 3.2 | 9.7 | 0.00 | 0.00 | 0.00 | 54 | 1013.1 |
| 20260508152505 | 16 | 234 | 6.4 | 14.5 | 0.00 | 0.00 | 0.00 | 53 | 1013.1 |
| 20260508152004 | 17 | 249 | 8.0 | 11.3 | 0.00 | 0.00 | 0.00 | 52 | 1013.1 |
| 20260508151505 | 16 | 249 | 4.8 | 20.9 | 0.00 | 0.00 | 0.00 | 54 | 1013.1 |
| 20260508151004 | 16 | 216 | 4.8 | 12.9 | 0.00 | 0.00 | 0.00 | 54 | 1013.1 |
| 20260508150505 | 16 | 296 | 3.2 | 9.7 | 0.00 | 0.00 | 0.00 | 56 | 1013.3 |
| 20260508150005 | 16 | 256 | 4.8 | 9.7 | 0.00 | 0.00 | 0.00 | 55 | 1013.4 |
| 20260508145504 | 15 | 10 | 3.2 | 9.7 | 0.00 | 0.00 | 0.00 | 57 | 1013.4 |
| 20260508145005 | 15 | 342 | 6.4 | 11.3 | 0.00 | 0.00 | 0.00 | 56 | 1013.5 |
| 20260508144504 | 14 | 176 | 3.2 | 9.7 | 0.00 | 0.00 | 0.00 | 59 | 1013.6 |
| 20260508144005 | 14 | 254 | 3.2 | 9.7 | 0.00 | 0.00 | 0.00 | 60 | 1013.6 |
| 20260508143505 | 13 | 252 | 3.2 | 9.7 | 0.00 | 0.00 | 0.00 | 58 | 1013.8 |
| 20260508143004 | 13 | 152 | 1.6 | 9.7 | 0.00 | 0.00 | 0.00 | 60 | 1013.8 |
| 20260508142505 | 13 | 285 | 3.2 | 11.3 | 0.00 | 0.00 | 0.00 | 59 | 1013.8 |
| 20260508142005 | 13 | 225 | 1.6 | 8.0 | 0.00 | 0.00 | 0.00 | 61 | 1013.8 |
| 20260508141505 | 13 | 257 | 3.2 | 11.3 | 0.00 | 0.00 | 0.00 | 60 | 1013.8 |
| 20260508141005 | 13 | 250 | 3.2 | 9.7 | 0.00 | 0.00 | 0.00 | 62 | 1013.9 |
| 20260508140504 | 12 | 242 | 1.6 | 8.0 | 0.00 | 0.00 | 0.00 | 64 | 1013.9 |
| 20260508140005 | 12 | 274 | 3.2 | 9.7 | 0.00 | 0.00 | 0.00 | 62 | 1014.0 |
| 20260508135505 | 12 | 249 | 3.2 | 9.7 | 0.00 | 0.00 | 0.00 | 63 | 1014.1 |
| 20260508135004 | 11 | 242 | 1.6 | 8.0 | 0.00 | 0.00 | 0.00 | 64 | 1014.1 |
| 20260508134004 | 11 | 227 | 4.8 | 11.3 | 0.00 | 0.00 | 0.00 | 65 | 1013.9 |
| 20260508133505 | 11 | 254 | 1.6 | 8.0 | 0.00 | 0.00 | 0.00 | 66 | 1013.9 |
| 20260508133004 | 11 | 228 | 3.2 | 9.7 | 0.00 | 0.00 | 0.00 | 67 | 1014.0 |
| 20260508132505 | 11 | 230 | 3.2 | 9.7 | 0.00 | 0.00 | 0.00 | 66 | 1013.9 |
| 20260508132004 | 10 | 238 | 3.2 | 9.7 | 0.00 | 0.00 | 0.00 | 67 | 1013.9 |
| 20260508131505 | 10 | 226 | 4.8 | 9.7 | 0.00 | 0.00 | 0.00 | 67 | 1013.9 |
| 20260508131004 | 10 | 232 | 3.2 | 9.7 | 0.00 | 0.00 | 0.00 | 67 | 1013.9 |
| 20260508130504 | 10 | 232 | 1.6 | 9.7 | 0.00 | 0.00 | 0.00 | 66 | 1013.9 |
| 20260508125005 | 10 | 232 | 3.2 | 9.7 | 0.00 | 0.00 | 0.00 | 66 | 1013.9 |
| 20260508124005 | 10 | 223 | 3.2 | 9.7 | 0.00 | 0.00 | 0.00 | 65 | 1013.9 |
| 20260508123505 | 10 | 232 | 4.8 | 11.3 | 0.00 | 0.00 | 0.00 | 65 | 1013.9 |
| 20260508123004 | 10 | 251 | 1.6 | 9.7 | 0.00 | 0.00 | 0.00 | 67 | 1013.8 |
| 20260508122505 | 10 | 225 | 4.8 | 9.7 | 0.00 | 0.00 | 0.00 | 67 | 1013.8 |
| 20260508122004 | 10 | 232 | 3.2 | 9.7 | 0.00 | 0.00 | 0.00 | 68 | 1013.8 |
| 20260508121505 | 9 | 235 | 3.2 | 9.7 | 0.00 | 0.00 | 0.00 | 68 | 1013.8 |
| 20260508120505 | 9 | 218 | 3.2 | 4.8 | 0.00 | 0.00 | 0.00 | 69 | 1013.8 |
| 20260508120004 | 9 | 218 | 3.2 | 8.0 | 0.00 | 0.00 | 0.00 | 69 | 1013.8 |
| 20260508115506 | 9 | 224 | 1.6 | 4.8 | 0.00 | 0.00 | 0.00 | 69 | 1013.8 |
| 20260508115005 | 8 | 223 | 1.6 | 8.0 | 0.00 | 0.00 | 0.00 | 69 | 1013.8 |
| 20260508114504 | 8 | 195 | 3.2 | 8.0 | 0.00 | 0.00 | 0.00 | 69 | 1013.7 |
| 20260508114005 | 8 | 220 | 3.2 | 4.8 | 0.00 | 0.00 | 0.00 | 70 | 1013.7 |
| 20260508112504 | 8 | 219 | 0.0 | 1.6 | 0.00 | 0.00 | 0.00 | 71 | 1013.5 |
| 20260508112004 | 8 | 226 | 0.0 | 1.6 | 0.00 | 0.00 | 0.00 | 71 | 1013.4 |
| 20260508111505 | 7 | 223 | 1.6 | 3.2 | 0.00 | 0.00 | 0.00 | 71 | 1013.5 |
| 20260508111004 | 7 | 217 | 1.6 | 4.8 | 0.00 | 0.00 | 0.00 | 71 | 1013.4 |
| 20260508110505 | 7 | 212 | 1.6 | 4.8 | 0.00 | 0.00 | 0.00 | 71 | 1013.4 |
| 20260508110005 | 7 | 231 | 1.6 | 4.8 | 0.00 | 0.00 | 0.00 | 71 | 1013.4 |
| 20260508105005 | 7 | 224 | 1.6 | 4.8 | 0.00 | 0.00 | 0.00 | 70 | 1013.3 |
| 20260508104004 | 7 | 234 | 1.6 | 8.0 | 0.00 | 0.00 | 0.00 | 70 | 1013.3 |
| 20260508103504 | 7 | 238 | 1.6 | 8.0 | 0.00 | 0.00 | 0.00 | 70 | 1013.2 |
| 20260508103004 | 7 | 220 | 1.6 | 4.8 | 0.00 | 0.00 | 0.00 | 70 | 1013.2 |
| 20260508102504 | 7 | 250 | 1.6 | 4.8 | 0.00 | 0.00 | 0.00 | 70 | 1013.2 |
| 20260508102004 | 7 | 235 | 3.2 | 4.8 | 0.00 | 0.00 | 0.00 | 70 | 1013.2 |
| 20260508101004 | 7 | 229 | 1.6 | 3.2 | 0.00 | 0.00 | 0.00 | 69 | 1013.1 |
| 20260508100505 | 7 | 226 | 0.0 | 4.8 | 0.00 | 0.00 | 0.00 | 69 | 1013.2 |
| 20260508100004 | 7 | 244 | 1.6 | 9.7 | 0.00 | 0.00 | 0.00 | 69 | 1013.2 |
| 20260508095504 | 7 | 238 | 3.2 | 9.7 | 0.00 | 0.00 | 0.00 | 69 | 1013.2 |
| 20260508095005 | 7 | 224 | 3.2 | 8.0 | 0.00 | 0.00 | 0.00 | 69 | 1013.1 |
| 20260508094504 | 7 | 226 | 3.2 | 8.0 | 0.00 | 0.00 | 0.00 | 69 | 1013.2 |
| 20260508094005 | 7 | 227 | 3.2 | 8.0 | 0.00 | 0.00 | 0.00 | 69 | 1013.2 |
| 20260508093505 | 7 | 228 | 1.6 | 8.0 | 0.00 | 0.00 | 0.00 | 69 | 1013.1 |
| 20260508093004 | 7 | 198 | 1.6 | 4.8 | 0.00 | 0.00 | 0.00 | 69 | 1013.2 |
| 20260508092504 | 7 | 220 | 0.0 | 3.2 | 0.00 | 0.00 | 0.00 | 69 | 1013.1 |
| 20260508092004 | 7 | 221 | 3.2 | 8.0 | 0.00 | 0.00 | 0.00 | 69 | 1013.1 |
| 20260508091504 | 7 | 247 | 0.0 | 3.2 | 0.00 | 0.00 | 0.00 | 69 | 1013.1 |
| 20260508091005 | 7 | 216 | 3.2 | 9.7 | 0.00 | 0.00 | 0.00 | 69 | 1013.2 |
| 20260508090504 | 7 | 215 | 1.6 | 4.8 | 0.00 | 0.00 | 0.00 | 69 | 1013.2 |
| 20260508090005 | 7 | 224 | 3.2 | 9.7 | 0.00 | 0.00 | 0.00 | 68 | 1013.3 |
| 20260508085504 | 7 | 224 | 3.2 | 8.0 | 0.00 | 0.00 | 0.00 | 68 | 1013.3 |
| 20260508085004 | 7 | 221 | 1.6 | 4.8 | 0.00 | 0.00 | 0.00 | 69 | 1013.3 |
| 20260508084504 | 7 | 242 | 0.0 | 3.2 | 0.00 | 0.00 | 0.00 | 68 | 1013.4 |
| 20260508084004 | 7 | 242 | 1.6 | 4.8 | 0.00 | 0.00 | 0.00 | 68 | 1013.3 |
| 20260508083504 | 8 | 225 | 1.6 | 3.2 | 0.00 | 0.00 | 0.00 | 68 | 1013.3 |
| 20260508083005 | 8 | 233 | 0.0 | 3.2 | 0.00 | 0.00 | 0.00 | 68 | 1013.3 |
| 20260508081505 | 8 | 224 | 1.6 | 3.2 | 0.00 | 0.00 | 0.00 | 67 | 1013.3 |
| 20260508081004 | 8 | 215 | 3.2 | 9.7 | 0.00 | 0.00 | 0.00 | 67 | 1013.3 |
| 20260508080004 | 8 | 241 | 1.6 | 4.8 | 0.00 | 0.00 | 0.00 | 67 | 1013.3 |
| 20260508075004 | 8 | 235 | 1.6 | 4.8 | 0.00 | 0.00 | 0.00 | 67 | 1013.4 |
| 20260508074504 | 8 | 207 | 1.6 | 3.2 | 0.00 | 0.00 | 0.00 | 67 | 1013.3 |
| 20260508074004 | 8 | 231 | 1.6 | 4.8 | 0.00 | 0.00 | 0.00 | 67 | 1013.4 |
| 20260508073504 | 8 | 214 | 0.0 | 3.2 | 0.00 | 0.00 | 0.00 | 66 | 1013.4 |
| 20260508073004 | 8 | 226 | 0.0 | 0.0 | 0.00 | 0.00 | 0.00 | 66 | 1013.4 |
| 20260508072503 | 8 | 230 | 0.0 | 1.6 | 0.00 | 0.00 | 0.00 | 66 | 1013.4 |
| 20260508072004 | 8 | 226 | 0.0 | 3.2 | 0.00 | 0.00 | 0.00 | 65 | 1013.5 |
| 20260508071504 | 8 | 242 | 0.0 | 3.2 | 0.00 | 0.00 | 0.00 | 65 | 1013.5 |
| 20260508070504 | 9 | 226 | 0.0 | 3.2 | 0.00 | 0.00 | 0.00 | 64 | 1013.6 |
| 20260508070004 | 9 | 314 | 0.0 | 1.6 | 0.00 | 0.00 | 0.00 | 63 | 1013.6 |
| 20260508065504 | 9 | 235 | 1.6 | 4.8 | 0.00 | 0.00 | 0.00 | 63 | 1013.6 |
| 20260508064503 | 10 | 230 | 0.0 | 4.8 | 0.00 | 0.00 | 0.00 | 61 | 1013.7 |
| 20260508064004 | 10 | 258 | 3.2 | 16.1 | 0.00 | 0.00 | 0.00 | 61 | 1013.7 |
| 20260508063505 | 10 | 234 | 3.2 | 9.7 | 0.00 | 0.00 | 0.00 | 62 | 1013.7 |
| 20260508063004 | 10 | 234 | 3.2 | 11.3 | 0.00 | 0.00 | 0.00 | 62 | 1013.7 |
| 20260508062504 | 10 | 134 | 3.2 | 4.8 | 0.00 | 0.00 | 0.00 | 64 | 1013.8 |
| 20260508062004 | 10 | 85 | 3.2 | 8.0 | 0.00 | 0.00 | 0.00 | 64 | 1014.0 |
| 20260508061503 | 10 | 13 | 3.2 | 12.9 | 0.00 | 0.00 | 0.00 | 63 | 1014.2 |
| 20260508061004 | 10 | 11 | 6.4 | 12.9 | 0.00 | 0.00 | 0.00 | 60 | 1014.1 |
| 20260508060505 | 10 | 232 | 1.6 | 9.7 | 0.00 | 0.00 | 0.00 | 60 | 1013.6 |
| 20260508060004 | 10 | 236 | 4.8 | 9.7 | 0.00 | 0.00 | 0.00 | 60 | 1013.5 |
| 20260508055504 | 10 | 241 | 1.6 | 9.7 | 0.00 | 0.00 | 0.00 | 60 | 1013.7 |
| 20260508055004 | 10 | 241 | 3.2 | 9.7 | 0.00 | 0.00 | 0.00 | 60 | 1013.6 |
| 20260508054503 | 10 | 255 | 4.8 | 9.7 | 0.00 | 0.00 | 0.00 | 60 | 1013.7 |
| 20260508054004 | 10 | 233 | 3.2 | 9.7 | 0.00 | 0.00 | 0.00 | 61 | 1013.7 |
| 20260508053504 | 10 | 225 | 3.2 | 8.0 | 0.00 | 0.00 | 0.00 | 61 | 1013.7 |
| 20260508053003 | 10 | 242 | 1.6 | 4.8 | 0.00 | 0.00 | 0.00 | 62 | 1013.7 |
| 20260508052504 | 10 | 202 | 1.6 | 4.8 | 0.00 | 0.00 | 0.00 | 62 | 1013.7 |
| 20260508052004 | 10 | 235 | 1.6 | 4.8 | 0.00 | 0.00 | 0.00 | 62 | 1013.8 |
| 20260508051504 | 10 | 231 | 1.6 | 3.2 | 0.00 | 0.00 | 0.00 | 63 | 1013.8 |
| 20260508051004 | 10 | 206 | 1.6 | 4.8 | 0.00 | 0.00 | 0.00 | 63 | 1013.7 |
| 20260508045504 | 10 | 239 | 3.2 | 4.8 | 0.00 | 0.00 | 0.00 | 64 | 1013.8 |
| 20260508045003 | 10 | 219 | 4.8 | 9.7 | 0.00 | 0.00 | 0.00 | 63 | 1013.8 |
| 20260508044003 | 10 | 226 | 1.6 | 4.8 | 0.00 | 0.00 | 0.00 | 64 | 1013.8 |
| 20260508043504 | 10 | 230 | 0.0 | 0.0 | 0.00 | 0.00 | 0.00 | 64 | 1013.9 |
| 20260508042505 | 10 | 217 | 1.6 | 4.8 | 0.00 | 0.00 | 0.00 | 63 | 1013.9 |
| 20260508042003 | 10 | 220 | 0.0 | 1.6 | 0.00 | 0.00 | 0.00 | 64 | 1014.0 |
| 20260508041005 | 10 | 240 | 0.0 | 0.0 | 0.00 | 0.00 | 0.00 | 63 | 1014.0 |
| 20260508040505 | 10 | 240 | 0.0 | 1.6 | 0.00 | 0.00 | 0.00 | 63 | 1014.0 |
| 20260508040005 | 10 | 251 | 1.6 | 3.2 | 0.00 | 0.00 | 0.00 | 62 | 1014.0 |
| 20260508035505 | 10 | 130 | 0.0 | 0.0 | 0.00 | 0.00 | 0.00 | 61 | 1014.1 |
| 20260508035004 | 10 | 129 | 0.0 | 1.6 | 0.00 | 0.00 | 0.00 | 61 | 1014.1 |
| 20260508034505 | 10 | 224 | 0.0 | 1.6 | 0.00 | 0.00 | 0.00 | 60 | 1014.1 |
| 20260508034005 | 10 | 224 | 0.0 | 1.6 | 0.00 | 0.00 | 0.00 | 59 | 1014.0 |
| 20260508033505 | 10 | 252 | 0.0 | 1.6 | 0.00 | 0.00 | 0.00 | 60 | 1014.1 |
| 20260508033005 | 10 | 245 | 0.0 | 3.2 | 0.00 | 0.00 | 0.00 | 59 | 1014.0 |
| 20260508032505 | 10 | 172 | 0.0 | 0.0 | 0.00 | 0.00 | 0.00 | 61 | 1013.9 |
| 20260508030505 | 10 | 172 | 0.0 | 0.0 | 0.00 | 0.00 | 0.00 | 61 | 1013.8 |
| 20260508030005 | 10 | 172 | 0.0 | 0.0 | 0.00 | 0.00 | 0.00 | 62 | 1013.8 |
| 20260508025505 | 9 | 172 | 0.0 | 0.0 | 0.00 | 0.00 | 0.00 | 62 | 1013.8 |
| 20260508024504 | 9 | 221 | 0.0 | 0.0 | 0.00 | 0.00 | 0.00 | 62 | 1013.8 |
| 20260508024005 | 9 | 230 | 0.0 | 0.0 | 0.00 | 0.00 | 0.00 | 63 | 1013.8 |
| 20260508023505 | 9 | 225 | 0.0 | 3.2 | 0.00 | 0.00 | 0.00 | 63 | 1013.8 |
| 20260508023005 | 9 | 220 | 0.0 | 0.0 | 0.00 | 0.00 | 0.00 | 64 | 1013.7 |
| 20260508022504 | 9 | 221 | 0.0 | 0.0 | 0.00 | 0.00 | 0.00 | 64 | 1013.7 |
| 20260508022004 | 10 | 239 | 0.0 | 0.0 | 0.00 | 0.00 | 0.00 | 62 | 1013.8 |
| 20260508021505 | 10 | 239 | 0.0 | 0.0 | 0.00 | 0.00 | 0.00 | 62 | 1013.8 |
| 20260508021005 | 10 | 239 | 0.0 | 0.0 | 0.00 | 0.00 | 0.00 | 61 | 1013.9 |
| 20260508020504 | 10 | 235 | 0.0 | 0.0 | 0.00 | 0.00 | 0.00 | 62 | 1013.8 |
| 20260508020004 | 10 | 235 | 0.0 | 1.6 | 0.00 | 0.00 | 0.00 | 61 | 1013.8 |
| 20260508015505 | 10 | 235 | 0.0 | 0.0 | 0.00 | 0.00 | 0.00 | 60 | 1013.9 |
| 20260508015004 | 10 | 235 | 0.0 | 1.6 | 0.00 | 0.00 | 0.00 | 59 | 1013.9 |
| 20260508014504 | 10 | 228 | 0.0 | 0.0 | 0.00 | 0.00 | 0.00 | 59 | 1013.9 |
| 20260508014005 | 10 | 228 | 0.0 | 0.0 | 0.00 | 0.00 | 0.00 | 59 | 1013.8 |
| 20260508013505 | 10 | 228 | 0.0 | 0.0 | 0.00 | 0.00 | 0.00 | 58 | 1013.9 |
| 20260508012504 | 10 | 228 | 0.0 | 0.0 | 0.00 | 0.00 | 0.00 | 58 | 1013.8 |
| 20260508012005 | 10 | 228 | 0.0 | 0.0 | 0.00 | 0.00 | 0.00 | 58 | 1013.9 |
| 20260508011505 | 10 | 228 | 0.0 | 0.0 | 0.00 | 0.00 | 0.00 | 59 | 1013.9 |
| 20260508010005 | 11 | 228 | 0.0 | 0.0 | 0.00 | 0.00 | 0.00 | 56 | 1013.7 |
| 20260508005004 | 11 | 228 | 0.0 | 0.0 | 0.00 | 0.00 | 0.00 | 54 | 1013.8 |
| 20260508004505 | 11 | 228 | 0.0 | 0.0 | 0.00 | 0.00 | 0.00 | 53 | 1013.8 |
| 20260508004004 | 11 | 228 | 0.0 | 0.0 | 0.00 | 0.00 | 0.00 | 52 | 1013.7 |
| 20260508003504 | 11 | 228 | 0.0 | 0.0 | 0.00 | 0.00 | 0.00 | 51 | 1013.7 |
| 20260508003005 | 11 | 228 | 0.0 | 0.0 | 0.00 | 0.00 | 0.00 | 51 | 1013.7 |
| 20260508002504 | 12 | 228 | 0.0 | 1.6 | 0.00 | 0.00 | 0.00 | 50 | 1013.6 |
| 20260508001505 | 12 | 241 | 0.0 | 3.2 | 0.00 | 0.00 | 0.00 | 48 | 1013.6 |
| 20260508001004 | 12 | 271 | 0.0 | 3.2 | 0.00 | 0.00 | 0.00 | 48 | 1013.6 |
| 20260508000505 | 12 | 216 | 0.0 | 3.2 | 0.00 | 0.00 | 0.00 | 47 | 1013.5 |
| 20260508000004 | 13 | 248 | 0.0 | 4.8 | 0.00 | 0.00 | 0.00 | 46 | 1013.5 |
| 20260507235504 | 13 | 217 | 1.6 | 9.7 | 0.00 | 0.00 | 0.00 | 45 | 1013.4 |
| 20260507235005 | 13 | 179 | 0.0 | 8.0 | 0.00 | 0.00 | 0.00 | 45 | 1013.4 |
| 20260507234504 | 13 | 259 | 0.0 | 3.2 | 0.00 | 0.00 | 0.00 | 45 | 1013.4 |
| 20260507234004 | 13 | 344 | 1.6 | 4.8 | 0.00 | 0.00 | 0.00 | 44 | 1013.5 |
| 20260507233505 | 13 | 328 | 3.2 | 8.0 | 0.00 | 0.00 | 0.00 | 42 | 1013.4 |
| 20260507233004 | 14 | 275 | 3.2 | 8.0 | 0.00 | 0.00 | 0.00 | 42 | 1013.3 |
| 20260507232004 | 14 | 316 | 6.4 | 9.7 | 0.00 | 0.00 | 0.00 | 41 | 1013.4 |
| 20260507231004 | 14 | 294 | 6.4 | 14.5 | 0.00 | 0.00 | 0.00 | 40 | 1013.4 |
| 20260507230004 | 14 | 303 | 4.8 | 9.7 | 0.00 | 0.00 | 0.00 | 41 | 1013.4 |
| 20260507225004 | 15 | 0 | 3.2 | 9.7 | 0.00 | 0.00 | 0.00 | 41 | 1013.3 |
| 20260507224505 | 15 | 316 | 3.2 | 9.7 | 0.00 | 0.00 | 0.00 | 42 | 1013.3 |
| 20260507224004 | 14 | 301 | 1.6 | 9.7 | 0.00 | 0.00 | 0.00 | 41 | 1013.4 |
| 20260507223504 | 14 | 323 | 4.8 | 12.9 | 0.00 | 0.00 | 0.00 | 40 | 1013.4 |
| 20260507223004 | 15 | 328 | 3.2 | 9.7 | 0.00 | 0.00 | 0.00 | 39 | 1013.5 |
| 20260507222504 | 15 | 254 | 3.2 | 9.7 | 0.00 | 0.00 | 0.00 | 39 | 1013.6 |
| 20260507222005 | 15 | 310 | 4.8 | 9.7 | 0.00 | 0.00 | 0.00 | 41 | 1013.6 |
| 20260507221504 | 15 | 300 | 3.2 | 9.7 | 0.00 | 0.00 | 0.00 | 41 | 1013.7 |
| 20260507221005 | 15 | 309 | 4.8 | 9.7 | 0.00 | 0.00 | 0.00 | 42 | 1013.7 |